UAL560 KMIA-KPHX

Flight info

Callsign UAL560
Flight time 0h -9m
Altitude 30000
Route GLADZ4 BAGGS Y290 LEV J86 JCT/N0501F320 J86 ELP DRRVR PINNG1
Aircraft B763/H-SDE3FGHIM3RWXY/LB1

Departure

Time 2026-05-04 05:12
Airport Miami International Airport (KMIA)

Arrival

Time 2026-05-04 05:02
Airport Phoenix Sky Harbor International Airport (KPHX)
Time Latitude Longitude Altitude Speed Heading
2026-05-04 02:56 31.06198 -100.53853 30000 ft 464 kts 281°
2026-05-04 02:56 31.06802 -100.57552 30000 ft 464 kts 281°
2026-05-04 02:57 31.07994 -100.64895 30001 ft 464 kts 281°
2026-05-04 02:57 31.09191 -100.72284 30001 ft 464 kts 281°
2026-05-04 02:57 31.09788 -100.75989 29511 ft 471 kts 281°
2026-05-04 02:58 31.10398 -100.79783 29256 ft 471 kts 280°
2026-05-04 02:58 31.10995 -100.83488 29698 ft 461 kts 280°
2026-05-04 02:58 31.11582 -100.87146 29856 ft 457 kts 280°
2026-05-04 02:59 31.12748 -100.94438 29964 ft 457 kts 280°
2026-05-04 02:59 31.13912 -101.01746 29992 ft 458 kts 280°
2026-05-04 03:00 31.15077 -101.09071 29999 ft 459 kts 280°
2026-05-04 03:00 31.16229 -101.16359 30000 ft 460 kts 280°
2026-05-04 03:01 31.17387 -101.23710 30000 ft 461 kts 280°
2026-05-04 03:01 31.18546 -101.31087 30000 ft 461 kts 280°
2026-05-04 03:02 31.19698 -101.38460 30001 ft 462 kts 280°
2026-05-04 03:02 31.20849 -101.45849 30001 ft 462 kts 280°
2026-05-04 03:03 31.21996 -101.53238 30000 ft 462 kts 280°
2026-05-04 03:03 31.23137 -101.60630 30000 ft 462 kts 280°
2026-05-04 03:04 31.24278 -101.68037 30003 ft 465 kts 280°
2026-05-04 03:04 31.25415 -101.75456 30002 ft 467 kts 280°
2026-05-04 03:05 31.26560 -101.82957 29998 ft 468 kts 280°
2026-05-04 03:05 31.27699 -101.90442 29998 ft 467 kts 280°
2026-05-04 03:06 31.28830 -101.97909 29999 ft 466 kts 280°
2026-05-04 03:06 31.29954 -102.05364 29999 ft 465 kts 280°
2026-05-04 03:07 31.31066 -102.12760 30000 ft 464 kts 279°
2026-05-04 03:07 31.32179 -102.20201 29999 ft 464 kts 279°
2026-05-04 03:08 31.33289 -102.27645 30003 ft 466 kts 279°
2026-05-04 03:08 31.34400 -102.35138 30002 ft 468 kts 279°
2026-05-04 03:09 31.35509 -102.42640 30000 ft 468 kts 279°
2026-05-04 03:09 31.36612 -102.50133 29999 ft 466 kts 279°
2026-05-04 03:10 31.37699 -102.57553 29999 ft 465 kts 279°
2026-05-04 03:10 31.38789 -102.65019 30001 ft 465 kts 279°
2026-05-04 03:11 31.39873 -102.72478 29999 ft 464 kts 279°
2026-05-04 03:11 31.40952 -102.79931 30001 ft 465 kts 279°
2026-05-04 03:12 31.42032 -102.87421 30003 ft 467 kts 279°
2026-05-04 03:12 31.43102 -102.94883 30000 ft 468 kts 279°
2026-05-04 03:13 31.44176 -103.02400 30000 ft 467 kts 279°
2026-05-04 03:13 31.45242 -103.09894 29998 ft 466 kts 279°
2026-05-04 03:14 31.46303 -103.17382 30000 ft 465 kts 279°
2026-05-04 03:14 31.47357 -103.24852 30000 ft 464 kts 279°
2026-05-04 03:15 31.48400 -103.32282 30002 ft 466 kts 279°
2026-05-04 03:15 31.49451 -103.39801 30001 ft 468 kts 279°
2026-05-04 03:16 31.50499 -103.47325 29998 ft 467 kts 279°
2026-05-04 03:16 31.51540 -103.54840 29997 ft 466 kts 279°
2026-05-04 03:17 31.52575 -103.62335 29998 ft 465 kts 279°
2026-05-04 03:17 31.53603 -103.69823 30000 ft 465 kts 279°
2026-05-04 03:18 31.54625 -103.77298 29999 ft 464 kts 279°
2026-05-04 03:18 31.55637 -103.84731 30000 ft 465 kts 279°
2026-05-04 03:19 31.56653 -103.92233 30001 ft 467 kts 279°
2026-05-04 03:19 31.57671 -103.99771 30002 ft 469 kts 279°
2026-05-04 03:20 31.58686 -104.07331 30000 ft 469 kts 279°
2026-05-04 03:20 31.59694 -104.14877 29999 ft 467 kts 279°
2026-05-04 03:21 31.60697 -104.22405 29998 ft 466 kts 278°
2026-05-04 03:21 31.61690 -104.29910 29998 ft 465 kts 278°
2026-05-04 03:22 31.62680 -104.37412 30000 ft 465 kts 278°
2026-05-04 03:22 31.63666 -104.44930 30001 ft 467 kts 278°
2026-05-04 03:23 31.64647 -104.52446 30002 ft 469 kts 278°
2026-05-04 03:23 31.65633 -104.60026 30001 ft 471 kts 278°
2026-05-04 03:24 31.66616 -104.67627 30000 ft 470 kts 278°
2026-05-04 03:24 31.67592 -104.75205 29998 ft 469 kts 278°
2026-05-04 03:25 31.68565 -104.82805 30002 ft 470 kts 278°
2026-05-04 03:25 31.69534 -104.90401 29999 ft 470 kts 278°
2026-05-04 03:26 31.70491 -104.97940 29998 ft 468 kts 278°
2026-05-04 03:26 31.71445 -105.05502 29997 ft 467 kts 278°
2026-05-04 03:27 31.72394 -105.13044 30000 ft 466 kts 278°
2026-05-04 03:27 31.73336 -105.20580 29999 ft 465 kts 278°
2026-05-04 03:28 31.74271 -105.28093 30000 ft 465 kts 278°
2026-05-04 03:28 31.75205 -105.35635 30002 ft 468 kts 278°
2026-05-04 03:29 31.76132 -105.43166 30002 ft 469 kts 278°
2026-05-04 03:29 31.77066 -105.50773 30001 ft 471 kts 278°
2026-05-04 03:30 31.77996 -105.58403 29999 ft 470 kts 278°
2026-05-04 03:30 31.78763 -105.64724 29997 ft 469 kts 278°
2026-05-04 03:31 31.79827 -105.73524 29998 ft 467 kts 278°
2026-05-04 03:31 31.80588 -105.79864 30000 ft 467 kts 278°
2026-05-04 03:32 31.81489 -105.87400 30009 ft 469 kts 278°
2026-05-04 03:32 31.82396 -105.95015 30002 ft 471 kts 278°
2026-05-04 03:33 31.83302 -106.02669 30000 ft 472 kts 278°
2026-05-04 03:33 31.84201 -106.10301 29999 ft 470 kts 278°
2026-05-04 03:34 31.85093 -106.17922 29999 ft 468 kts 278°
2026-05-04 03:34 31.85976 -106.25498 29999 ft 467 kts 278°
2026-05-04 03:35 31.86847 -106.33004 29999 ft 466 kts 277°
2026-05-04 03:35 31.87717 -106.40562 30000 ft 465 kts 277°
2026-05-04 03:36 31.88587 -106.48135 30001 ft 468 kts 277°
2026-05-04 03:36 31.89453 -106.55736 30019 ft 469 kts 277°
2026-05-04 03:37 31.90318 -106.63357 30002 ft 470 kts 277°
2026-05-04 03:37 31.91173 -106.70937 29997 ft 469 kts 277°
2026-05-04 03:38 31.92025 -106.78535 29996 ft 467 kts 277°
2026-05-04 03:38 31.92872 -106.86113 29998 ft 466 kts 277°
2026-05-04 03:39 31.93712 -106.93676 30000 ft 465 kts 277°
2026-05-04 03:39 31.94546 -107.01243 30001 ft 466 kts 277°
2026-05-04 03:40 31.95379 -107.08826 30000 ft 468 kts 277°
2026-05-04 03:40 31.96210 -107.16443 30001 ft 470 kts 277°
2026-05-04 03:41 31.97014 -107.24052 29997 ft 471 kts 274°
2026-05-04 03:41 31.96814 -107.31743 30000 ft 470 kts 267°
2026-05-04 03:42 31.96745 -107.39444 29996 ft 469 kts 271°
2026-05-04 03:42 31.96989 -107.47106 29997 ft 468 kts 272°
2026-05-04 03:43 31.97591 -107.54715 30000 ft 466 kts 279°
2026-05-04 03:43 31.98514 -107.62280 30002 ft 468 kts 278°
2026-05-04 03:44 31.99434 -107.69886 30001 ft 470 kts 278°
2026-05-04 03:44 32.00346 -107.77497 29998 ft 470 kts 278°
2026-05-04 03:45 32.01254 -107.85110 29997 ft 468 kts 278°
2026-05-04 03:45 32.02149 -107.92658 29998 ft 467 kts 278°
2026-05-04 03:46 32.03043 -108.00234 30000 ft 466 kts 278°
2026-05-04 03:46 32.03929 -108.07783 29999 ft 465 kts 278°
2026-05-04 03:47 32.04812 -108.15350 30001 ft 467 kts 278°
2026-05-04 03:47 32.05696 -108.22959 30003 ft 469 kts 277°
2026-05-04 03:48 32.06579 -108.30607 30001 ft 471 kts 277°
2026-05-04 03:48 32.06647 -108.31195 30001 ft 471 kts 278°
2026-05-04 04:23 32.07475 -108.38397 30000 ft 471 kts 277°
2026-05-04 04:24 32.08348 -108.46048 29997 ft 469 kts 277°
2026-05-04 04:24 32.09214 -108.53668 29998 ft 468 kts 277°
2026-05-04 04:25 32.10072 -108.61265 30000 ft 466 kts 277°
2026-05-04 04:25 32.10924 -108.68837 29998 ft 466 kts 277°
2026-05-04 04:26 32.11772 -108.76427 30016 ft 468 kts 277°
2026-05-04 04:26 32.12613 -108.83998 30002 ft 469 kts 277°
2026-05-04 04:27 32.13460 -108.91652 29999 ft 471 kts 277°
2026-05-04 04:27 32.14301 -108.99309 29998 ft 469 kts 277°
2026-05-04 04:28 32.15135 -109.06938 29999 ft 468 kts 277°
2026-05-04 04:28 32.15962 -109.14546 29999 ft 466 kts 277°
2026-05-04 04:29 32.16781 -109.22130 30000 ft 465 kts 277°
2026-05-04 04:29 32.17681 -109.29698 29996 ft 465 kts 280°
2026-05-04 04:30 32.19232 -109.37064 30015 ft 466 kts 284°
2026-05-04 04:30 32.20807 -109.44497 30001 ft 468 kts 284°
2026-05-04 04:31 32.22389 -109.51963 29997 ft 469 kts 284°
2026-05-04 04:31 32.23965 -109.59436 29999 ft 468 kts 284°
2026-05-04 04:32 32.25535 -109.66898 30002 ft 469 kts 284°
2026-05-04 04:32 32.27097 -109.74355 30001 ft 471 kts 284°
2026-05-04 04:33 32.28669 -109.81872 29997 ft 470 kts 284°
2026-05-04 04:33 32.30229 -109.89366 29997 ft 468 kts 284°
2026-05-04 04:34 32.31780 -109.96836 29997 ft 467 kts 284°
2026-05-04 04:34 32.33324 -110.04293 29999 ft 466 kts 283°
2026-05-04 04:35 32.34862 -110.11751 29998 ft 467 kts 283°
2026-05-04 04:35 32.36369 -110.19073 29930 ft 451 kts 283°
2026-05-04 04:36 32.37102 -110.22651 29455 ft 442 kts 283°
2026-05-04 04:36 32.37820 -110.26153 28678 ft 436 kts 283°
2026-05-04 04:36 32.38524 -110.29590 28494 ft 424 kts 283°
2026-05-04 04:36 32.39219 -110.32995 28315 ft 425 kts 283°
2026-05-04 04:37 32.41296 -110.43192 28041 ft 428 kts 283°
2026-05-04 04:37 32.41991 -110.46616 28027 ft 428 kts 283°
2026-05-04 04:38 32.43379 -110.53459 27998 ft 427 kts 283°
2026-05-04 04:38 32.44067 -110.56872 27998 ft 428 kts 283°
2026-05-04 04:38 32.44760 -110.60307 27999 ft 429 kts 283°
2026-05-04 04:39 32.46176 -110.67187 27991 ft 431 kts 287°
2026-05-04 04:39 32.48551 -110.73660 27998 ft 432 kts 297°
2026-05-04 04:40 32.51861 -110.79626 27995 ft 432 kts 303°
2026-05-04 04:40 32.53518 -110.82555 27986 ft 422 kts 304°
2026-05-04 04:40 32.55120 -110.85361 26998 ft 397 kts 304°
2026-05-04 04:41 32.56699 -110.88128 24998 ft 405 kts 304°
2026-05-04 04:41 32.58213 -110.90769 23743 ft 372 kts 304°
2026-05-04 04:41 32.59694 -110.93362 21839 ft 392 kts 304°
2026-05-04 04:41 32.61186 -110.95981 21126 ft 374 kts 304°
2026-05-04 04:42 32.62625 -110.98502 20033 ft 365 kts 304°
2026-05-04 04:42 32.64033 -111.00970 18937 ft 357 kts 304°
2026-05-04 04:42 32.65415 -111.03399 17943 ft 357 kts 304°
2026-05-04 04:42 32.66804 -111.05841 17435 ft 351 kts 304°
2026-05-04 04:43 32.68157 -111.08218 17192 ft 346 kts 304°
2026-05-04 04:43 32.69503 -111.10587 17103 ft 346 kts 304°
2026-05-04 04:43 32.70833 -111.12929 17052 ft 347 kts 304°
2026-05-04 04:43 32.72183 -111.15305 17032 ft 347 kts 304°
2026-05-04 04:44 32.73535 -111.17685 17016 ft 348 kts 304°
2026-05-04 04:44 32.74884 -111.20070 16985 ft 348 kts 304°
2026-05-04 04:44 32.76247 -111.22478 16519 ft 349 kts 303°
2026-05-04 04:44 32.77585 -111.24841 16061 ft 343 kts 304°
2026-05-04 04:45 32.78886 -111.27142 15592 ft 324 kts 303°
2026-05-04 04:45 32.80123 -111.29330 15112 ft 314 kts 303°
2026-05-04 04:45 32.81331 -111.31471 14673 ft 310 kts 303°
2026-05-04 04:47 32.90465 -111.41528 13200 ft 303 kts 323°
2026-05-04 04:47 32.92114 -111.43053 13399 ft 298 kts 329°
2026-05-04 04:47 32.94050 -111.44066 13437 ft 310 kts 341°
2026-05-04 04:47 32.96116 -111.44773 13254 ft 305 kts 345°
2026-05-04 04:48 32.98174 -111.45394 13151 ft 304 kts 346°
2026-05-04 04:49 33.06386 -111.47503 12802 ft 299 kts 358°
2026-05-04 04:49 33.08458 -111.47518 12718 ft 295 kts
2026-05-04 04:49 33.10505 -111.47476 12189 ft 293 kts
2026-05-04 04:49 33.12517 -111.47488 11758 ft 281 kts 355°
2026-05-04 04:50 33.14396 -111.47703 11753 ft 271 kts 353°
2026-05-04 04:50 33.16287 -111.47946 11761 ft 278 kts 353°
2026-05-04 04:50 33.18274 -111.48186 11941 ft 292 kts 354°
2026-05-04 04:50 33.20329 -111.48421 12227 ft 304 kts 354°
2026-05-04 04:51 33.22457 -111.48662 12241 ft 307 kts 354°
2026-05-04 04:51 33.24550 -111.48897 12165 ft 296 kts 354°
2026-05-04 04:51 33.26592 -111.49129 11525 ft 292 kts 354°
2026-05-04 04:51 33.28621 -111.49361 10821 ft 294 kts 354°
2026-05-04 04:52 33.30614 -111.49586 10786 ft 287 kts 354°
2026-05-04 04:52 33.32611 -111.49812 10742 ft 289 kts 354°
2026-05-04 04:52 33.34609 -111.50040 10688 ft 288 kts 354°
2026-05-04 04:52 33.36605 -111.50265 10634 ft 288 kts 354°
2026-05-04 04:53 33.38607 -111.50492 10496 ft 291 kts 354°
2026-05-04 04:53 33.40643 -111.50724 10249 ft 296 kts 354°
2026-05-04 04:53 33.42712 -111.50632 10000 ft 300 kts
2026-05-04 04:53 33.44798 -111.50788 9734 ft 303 kts 350°
2026-05-04 04:54 33.46777 -111.51624 9456 ft 305 kts 326°
2026-05-04 04:54 33.48271 -111.53407 9206 ft 306 kts 301°
2026-05-04 04:54 33.48985 -111.55790 8964 ft 307 kts 276°
2026-05-04 04:54 33.48780 -111.58325 8721 ft 308 kts 250°
2026-05-04 04:55 33.47792 -111.60497 8419 ft 273 kts 234°
2026-05-04 04:55 33.46737 -111.62172 8141 ft 246 kts 231°
2026-05-04 04:55 33.45677 -111.63760 7796 ft 241 kts 235°
2026-05-04 04:55 33.44709 -111.65402 7497 ft 241 kts 234°
2026-05-04 04:56 33.43867 -111.67105 7388 ft 240 kts 255°
2026-05-04 04:56 33.43625 -111.69044 7398 ft 238 kts 266°
2026-05-04 04:56 33.43533 -111.71057 7088 ft 245 kts 268°
2026-05-04 04:56 33.43469 -111.73096 6324 ft 241 kts 269°
2026-05-04 04:57 33.43504 -111.75038 5498 ft 230 kts 273°
2026-05-04 04:57 33.43588 -111.76845 4997 ft 207 kts 274°
2026-05-04 04:57 33.43679 -111.78541 4606 ft 202 kts 274°
2026-05-04 04:57 33.43766 -111.80107 4215 ft 177 kts 274°
2026-05-04 04:58 33.43845 -111.81545 3779 ft 170 kts 274°
2026-05-04 04:58 33.43917 -111.82912 3536 ft 159 kts 274°
2026-05-04 04:58 33.43981 -111.84215 3625 ft 155 kts 273°
2026-05-04 04:58 33.44040 -111.85527 3893 ft 160 kts 272°
2026-05-04 04:59 33.43999 -111.86915 3887 ft 174 kts 269°
2026-05-04 04:59 33.44011 -111.88335 3314 ft 169 kts 271°
2026-05-04 04:59 33.44054 -111.89691 2852 ft 156 kts 272°
2026-05-04 04:59 33.44082 -111.90975 2554 ft 153 kts 269°
2026-05-04 05:00 33.44063 -111.92260 2368 ft 155 kts 269°
2026-05-04 05:00 33.44059 -111.93505 2145 ft 150 kts 270°
2026-05-04 05:00 33.44076 -111.96001 1708 ft 149 kts 270°
2026-05-04 05:01 33.44078 -111.97220 1511 ft 148 kts 270°
2026-05-04 05:01 33.44079 -111.98461 1339 ft 149 kts 270°
2026-05-04 05:01 33.44083 -111.99701 1158 ft 148 kts 270°
2026-05-04 05:01 33.44090 -112.00900 1139 ft 136 kts 270°
2026-05-04 05:02 33.44094 -112.01965 1134 ft 111 kts 272°
2026-05-04 05:02 33.44094 -112.02507 1131 ft 26 kts 266°
2026-05-04 05:02 33.44088 -112.02602 1130 ft 5 kts 261°
2026-05-04 05:02 33.44052 -112.02659 1137 ft 11 kts 205°
2026-05-04 05:03 33.43979 -112.02669 1138 ft 10 kts 179°
2026-05-04 05:03 33.43913 -112.02640 1140 ft 10 kts 118°
2026-05-04 05:04 33.43902 -112.02213 1135 ft 23 kts 90°
2026-05-04 05:04 33.43901 -112.02021 1136 ft 25 kts 91°
2026-05-04 05:04 33.43901 -112.01828 1136 ft 20 kts 90°
2026-05-04 05:06 33.43902 -112.00592 1136 ft 18 kts 90°
2026-05-04 05:06 33.43889 -112.00498 1139 ft 14 kts 123°
2026-05-04 05:06 33.43776 -112.00470 1139 ft 24 kts 180°
2026-05-04 05:07 33.43649 -112.00470 1138 ft 20 kts 180°
2026-05-04 05:07 33.43514 -112.00470 1139 ft 23 kts 180°
2026-05-04 05:07 33.43382 -112.00470 1139 ft 19 kts 180°
2026-05-04 05:09 33.43401 -111.99736 1139 ft 0 kts 77°
2026-05-04 05:12 26.07700 -80.45379 15464 ft 564 kts 290°